Wind_Speed
9 9 8 8 8 8 7 7 6 6 6 6 6 5 5 4 4 3 2 3 3 3 4 4 5 6 7 9 9 12 15 19 21 22 18 17 13 8 5 5 10 7 6 7 8 4 3
10 10 10 9 9 9 8 8 7 7 7 7 7 6 6 6 6 5 4 4 4 4 4 5 6 6 7 9 10 10 10 16 19 23 21 19 13 9 7 5 6 9 5 6 5 5 5
10 10 10 10 10 10 10 9 9 9 8 8 9 8 8 8 8 7 6 6 6 6 5 5 6 7 7 10 11 12 9 12 20 24 22 20 15 12 11 8 7 4 4 6 7 5 6
12 12 12 12 11 11 11 10 11 10 10 10 10 10 10 9 9 9 8 8 8 8 8 8 7 8 8 9 11 12 12 11 20 26 26 23 18 15 12 10 8 7 8 8 5 7 8
13 13 13 14 14 13 13 12 12 12 12 11 11 10 10 10 11 10 9 10 9 9 9 9 9 9 9 11 14 13 14 14 17 26 29 26 21 19 16 12 10 9 8 10 10 6 8
14 14 15 15 16 16 15 15 14 13 13 13 12 12 11 11 11 11 9 9 9 9 9 9 10 10 12 15 17 16 14 15 18 26 29 28 24 22 22 17 11 7 8 10 9 9 17
14 14 15 15 16 16 17 16 15 15 14 14 13 12 12 11 11 11 10 8 7 8 7 9 7 16 9 17 19 18 16 16 19 25 30 31 29 30 25 20 15 14 15 16 13 14 17
15 15 15 16 16 17 18 18 16 15 14 13 13 13 12 11 11 10 9 7 4 4 5 9 13 13 11 20 20 19 18 19 22 26 29 29 36 29 24 21 16 14 18 20 17 10 23
15 16 17 17 18 18 18 19 19 17 15 14 13 13 13 11 11 9 7 5 3 1 3 3 6 14 16 17 19 19 19 20 22 25 27 26 15 32 26 25 24 21 20 22 19 19 22
16 17 17 18 18 19 19 19 19 18 16 15 13 12 13 10 10 8 5 2 2 1 4 3 2 8 21 19 16 16 16 19 21 23 24 23 27 8 19 32 24 23 22 21 15 15 10
17 18 18 19 19 19 20 20 19 18 18 16 13 12 11 9 8 6 5 3 1 5 2 3 4 1 13 22 4 18 14 18 19 17 20 12 11 28 23 16 19 20 17 11 10 14 12
18 19 20 21 21 20 20 20 20 18 17 17 14 10 9 7 6 5 5 4 3 3 2 3 3 3 10 24 8 11 16 16 16 13 15 19 12 7 12 14 10 11 9 11 12 10 7
19 21 22 22 23 22 21 20 21 18 17 16 14 10 7 5 4 4 5 6 3 3 6 5 4 2 8 22 11 8 20 22 17 12 15 14 16 13 14 16 16 16 9 6 5 5 9
22 23 23 23 24 23 22 21 21 20 16 16 12 10 8 6 4 5 8 9 5 6 8 6 7 7 9 13 20 9 18 24 24 15 5 5 4 10 18 22 15 19 15 10 7 7 6
23 23 23 24 23 23 23 22 21 21 17 15 13 10 8 6 6 6 9 9 4 9 8 6 6 8 12 15 14 17 18 22 20 17 16 5 6 1 6 8 18 18 15 13 9 7 5
22 23 23 23 23 23 23 22 21 21 19 13 12 10 9 7 6 7 10 9 8 11 9 7 7 6 12 18 15 17 15 11 25 26 19 16 16 16 8 5 12 20 15 11 8 9 11
20 21 23 23 23 25 25 24 22 19 18 13 10 10 10 9 6 7 9 10 12 12 12 9 8 6 10 15 17 20 10 10 11 9 14 27 22 13 11 11 12 16 16 19 14 10 11
18 20 22 23 25 27 27 25 24 20 17 15 10 9 10 11 10 10 11 11 12 13 13 13 12 12 10 10 11 12 11 14 14 11 8 14 12 15 18 15 17 19 17 18 14 8 7
18 20 23 26 27 28 28 27 25 24 20 14 10 10 12 12 14 16 14 11 11 12 14 12 11 14 14 15 11 13 14 14 15 13 9 11 10 7 7 10 16 19 23 23 22 23 19
19 23 25 27 28 28 28 28 26 24 21 16 11 8 10 15 18 18 15 14 12 10 12 14 13 11 12 13 16 9 16 17 18 15 12 11 14 12 16 11 11 9 13 19 24 19 18
22 24 27 28 28 30 29 28 25 22 19 16 12 9 11 12 14 19 19 16 12 11 11 11 12 13 13 13 14 15 15 17 17 17 18 19 17 20 22 22 23 24 20 19 22 23 20
25 29 29 30 29 30 28 26 24 21 18 15 13 11 12 15 17 17 18 19 20 20 18 17 17 16 16 13 15 14 18 21 20 17 17 14 14 15 18 20 26 28 26 21 21 20 21
28 29 30 31 30 29 27 26 24 21 19 15 12 11 12 12 13 14 18 19 19 19 17 18 18 17 15 17 17 18 18 20 21 17 17 17 14 13 17 14 22 26 23 25 24 24 23
29 31 32 31 28 26 26 26 24 20 16 15 13 12 11 11 10 11 14 15 17 19 20 18 17 16 17 17 19 20 20 19 19 19 18 17 14 15 15 12 17 20 18 19 22 24 28
33 35 33 33 27 25 26 25 22 19 15 13 12 12 12 13 11 12 13 14 16 18 20 20 19 21 20 20 19 20 21 24 26 24 22 20 19 16 19 21 23 20 14 14 9 15 17
35 38 33 30 25 25 26 22 18 15 14 12 12 13 14 14 11 13 14 15 16 17 17 19 20 20 19 19 17 14 13 12 9 11 21 26 28 27 19 18 17 22 20 30 26 25 21
34 33 26 25 25 27 23 19 15 14 14 14 14 14 15 16 12 14 15 16 17 16 16 14 13 15 17 17 16 18 21 18 18 20 18 21 22 25 26 22 19 17 14 20 18 16 19
35 27 22 23 26 23 20 18 15 15 15 16 17 15 16 17 16 17 15 14 14 13 14 14 13 14 14 16 13 13 12 14 17 20 19 21 16 17 15 16 17 16 21 24 18 18 21
25 21 21 23 23 20 19 18 18 18 16 17 18 17 17 18 15 18 17 18 17 17 18 16 11 9 8 7 10 9 10 12 18 17 19 20 23 17 15 12 14 16 21 23 25 26 26
Wind_Direction
34 31 27 24 20 13 7 2 360 352 347 341 334 326 316 305 292 275 247 232 211 191 183 183 186 187 189 190 197 192 201 211 207 200 199 199 219 218 255 303 330 2 355 350 335 323 262
31 31 28 25 23 19 15 10 8 2 356 347 339 330 319 310 297 282 260 248 228 216 198 189 185 190 193 192 191 174 185 202 201 201 200 205 219 222 223 273 310 328 318 351 341 314 330
24 21 18 15 11 8 5 0 356 352 350 347 342 336 327 313 300 292 278 260 249 234 220 208 201 200 198 198 203 200 201 198 194 198 203 212 220 222 224 251 267 310 318 314 330 313 297
28 24 20 15 9 3 357 351 345 341 339 339 336 334 333 324 309 297 293 276 265 255 240 227 216 213 211 196 189 195 194 194 194 194 201 211 216 220 221 236 265 277 299 333 346 343 315
33 29 25 19 14 7 0 353 345 339 335 332 330 327 326 324 314 307 298 281 272 263 252 242 230 221 216 200 189 188 195 199 200 198 203 211 214 218 224 236 254 270 292 312 324 332 331
29 23 18 14 8 3 358 352 345 337 333 329 327 325 325 325 315 314 305 294 283 267 253 237 228 222 214 202 199 198 199 201 200 203 206 211 216 221 224 231 240 266 292 300 305 311 319
22 15 10 6 3 359 353 347 341 336 330 322 321 321 322 322 319 319 320 315 292 279 258 228 205 219 210 202 198 199 204 203 202 201 208 210 217 220 222 231 244 263 274 282 289 311 316
17 13 10 5 2 359 357 352 342 335 330 322 312 309 310 313 315 324 329 326 307 272 257 226 218 211 216 199 197 199 199 197 203 202 207 214 220 226 229 232 244 262 269 272 286 309 319
12 11 9 5 1 358 356 356 352 342 332 323 316 301 296 305 309 315 325 332 309 296 148 186 205 212 206 204 207 207 202 201 206 206 211 217 225 234 230 236 245 254 267 269 283 305 315
9 6 3 0 358 356 353 350 351 351 340 326 318 303 289 298 303 310 309 317 332 82 114 107 181 200 206 197 206 207 210 211 209 214 216 231 225 231 225 238 247 254 254 272 283 306 304
359 357 356 354 352 350 348 346 343 346 343 335 330 307 289 288 295 294 281 262 228 140 156 130 61 86 192 189 193 214 211 217 218 219 217 229 250 237 234 241 245 247 262 264 278 294 293
348 348 347 347 344 342 343 341 337 335 336 335 335 312 300 288 289 272 242 218 192 178 140 149 115 95 173 189 206 198 203 205 215 221 232 240 241 233 236 237 218 229 266 278 282 283 249
339 341 341 340 339 338 335 337 336 329 327 325 332 327 303 291 279 252 223 205 187 198 170 171 201 152 163 192 193 206 201 195 196 207 231 243 244 243 238 243 241 250 241 237 230 217 268
335 336 336 337 337 336 336 336 336 333 322 314 320 324 317 295 267 225 202 192 211 182 171 176 217 217 201 193 212 235 208 206 209 208 214 233 256 235 227 232 237 241 224 226 255 248 274
330 332 333 334 336 336 337 339 339 336 327 307 308 309 310 301 265 223 197 197 204 191 194 186 204 209 204 199 207 220 212 215 224 229 223 229 251 239 205 287 228 221 219 237 242 257 253
326 329 331 332 335 336 338 338 340 339 337 304 297 295 291 286 262 223 202 209 208 206 200 205 199 198 195 193 199 208 207 232 233 242 246 250 265 268 259 241 237 219 235 235 235 255 263
324 328 330 331 333 335 336 341 340 338 337 325 294 287 277 271 263 228 216 214 217 224 223 222 217 203 184 185 201 202 214 200 184 192 215 229 236 251 242 250 232 232 239 246 249 242 272
322 329 334 335 335 333 333 332 338 339 336 329 300 268 263 258 243 238 238 231 226 223 236 227 228 229 211 197 200 208 214 208 202 197 201 221 230 247 244 256 241 229 251 250 248 236 230
321 326 331 334 332 334 335 331 331 332 335 327 305 275 257 246 241 244 246 243 238 230 228 224 220 226 226 221 221 221 224 222 221 221 225 219 222 252 267 262 246 242 251 253 240 248 250
324 325 330 334 335 334 332 330 330 329 329 328 312 276 261 249 244 246 247 246 246 243 230 225 221 223 223 221 219 225 226 225 225 228 226 240 242 240 259 276 273 254 262 251 241 239 243
320 324 324 324 327 328 331 331 327 326 326 325 317 284 262 256 251 251 251 249 239 224 228 229 237 237 234 235 231 226 224 227 228 232 246 254 257 260 263 266 274 271 262 268 257 245 236
314 318 320 322 321 324 329 329 328 328 328 324 317 300 278 263 261 258 258 261 260 260 256 253 249 244 248 249 242 239 232 233 239 245 253 251 251 257 264 265 265 268 265 257 260 255 248
316 317 321 319 319 319 322 323 323 324 322 319 313 302 289 281 272 266 262 261 263 264 266 260 259 255 246 245 241 241 242 231 226 224 226 235 247 259 265 264 270 270 263 258 252 254 251
317 319 320 321 322 318 320 322 321 321 317 315 312 306 295 287 281 273 269 264 261 262 259 257 255 248 243 237 237 238 241 242 245 239 239 245 247 248 261 256 255 258 254 260 254 252 252
313 316 316 317 320 319 319 319 318 316 317 314 308 303 299 295 289 279 271 265 263 262 262 263 251 250 249 247 248 254 256 257 252 249 245 245 244 247 243 247 259 257 253 261 248 247 256
309 313 315 320 313 320 320 317 314 314 314 312 308 304 303 304 301 292 281 272 267 264 265 261 260 258 250 245 246 241 237 240 235 237 236 238 241 237 244 246 255 261 251 256 268 268 256
309 310 315 313 319 320 320 315 312 315 312 308 307 304 301 300 299 291 285 280 277 275 267 259 251 252 254 252 243 245 246 240 242 241 238 234 235 231 237 245 257 251 225 251 240 244 237
307 306 306 308 314 317 318 312 308 312 309 306 305 305 303 298 296 288 283 284 277 281 272 268 266 253 244 236 235 239 242 239 240 238 232 227 228 238 235 237 250 241 231 240 240 233 233
299 303 305 307 311 312 313 310 309 308 305 303 302 305 303 299 296 287 285 281 279 273 268 264 257 239 221 216 223 228 239 240 239 243 237 235 232 236 231 238 250 228 222 236 251 253 247
Height
3167 3166 3165 3164 3163 3163 3162 3161 3160 3159 3158 3158 3157 3157 3156 3156 3156 3157 3157 3157 3157 3158 3158 3158 3159 3159 3160 3162 3162 3163 3164 3166 3169 3173 3176 3178 3180 3182 3183 3182 3182 3181 3181 3181 3180 3178 3179
3167 3167 3166 3165 3164 3163 3162 3161 3160 3159 3158 3157 3156 3156 3155 3155 3154 3155 3155 3156 3156 3156 3157 3157 3158 3158 3160 3161 3161 3162 3163 3165 3168 3172 3175 3177 3179 3181 3182 3182 3182 3181 3180 3181 3180 3179 3178
3168 3167 3166 3165 3164 3163 3162 3160 3159 3158 3157 3156 3155 3154 3153 3153 3152 3152 3153 3153 3154 3154 3155 3156 3157 3157 3158 3161 3160 3161 3162 3163 3166 3171 3174 3177 3178 3180 3181 3182 3182 3181 3181 3181 3180 3179 3179
3168 3167 3166 3165 3164 3162 3161 3160 3158 3157 3155 3154 3153 3152 3151 3150 3149 3150 3150 3151 3151 3152 3153 3154 3155 3156 3157 3157 3158 3159 3161 3162 3164 3168 3171 3173 3176 3178 3180 3181 3181 3181 3180 3180 3180 3179 3179
3169 3168 3166 3165 3163 3162 3160 3158 3157 3155 3154 3153 3151 3150 3149 3148 3147 3147 3147 3147 3148 3149 3150 3151 3153 3154 3155 3155 3156 3157 3159 3161 3163 3166 3168 3171 3174 3177 3179 3180 3181 3181 3181 3179 3179 3179 3178
3170 3168 3167 3165 3163 3161 3159 3157 3155 3154 3152 3151 3149 3148 3147 3146 3145 3144 3144 3144 3145 3145 3146 3148 3149 3153 3152 3153 3154 3155 3157 3159 3161 3163 3167 3170 3172 3174 3176 3178 3180 3180 3180 3179 3179 3179 3177
3170 3169 3167 3165 3163 3160 3158 3155 3153 3151 3150 3148 3147 3145 3144 3143 3142 3142 3142 3142 3144 3144 3142 3144 3145 3145 3148 3150 3152 3153 3155 3157 3159 3162 3164 3167 3170 3169 3174 3177 3178 3179 3179 3178 3178 3179 3176
3171 3169 3166 3164 3162 3159 3156 3153 3151 3149 3147 3145 3144 3143 3142 3141 3140 3140 3140 3139 3139 3140 3140 3139 3140 3142 3145 3146 3149 3151 3153 3157 3157 3159 3162 3167 3165 3169 3173 3175 3176 3177 3177 3177 3177 3177 3176
3171 3168 3166 3163 3161 3158 3155 3152 3149 3146 3144 3142 3141 3140 3138 3138 3138 3138 3138 3137 3137 3137 3137 3138 3138 3140 3142 3146 3147 3149 3152 3154 3156 3158 3160 3163 3166 3168 3170 3172 3174 3175 3175 3175 3177 3176 3173
3170 3168 3165 3163 3160 3157 3154 3150 3147 3144 3142 3140 3138 3136 3135 3136 3137 3135 3135 3135 3135 3135 3136 3139 3137 3138 3139 3143 3146 3148 3150 3155 3155 3157 3160 3162 3163 3165 3166 3168 3172 3172 3174 3174 3175 3175 3174
3169 3167 3164 3162 3159 3156 3153 3149 3146 3143 3140 3137 3135 3133 3132 3132 3133 3133 3134 3133 3134 3135 3136 3139 3136 3136 3136 3143 3145 3146 3149 3152 3154 3157 3160 3161 3160 3162 3164 3166 3169 3170 3172 3172 3172 3172 3171
3169 3166 3163 3160 3157 3154 3151 3148 3144 3142 3139 3136 3133 3131 3130 3130 3130 3130 3130 3132 3133 3137 3134 3136 3135 3135 3137 3140 3143 3144 3147 3150 3153 3155 3156 3158 3159 3160 3161 3164 3166 3168 3169 3169 3168 3168 3168
3167 3164 3161 3158 3155 3152 3149 3146 3142 3139 3137 3133 3131 3129 3128 3128 3128 3128 3129 3131 3134 3132 3134 3135 3134 3135 3137 3139 3141 3143 3144 3146 3150 3153 3154 3155 3155 3157 3159 3161 3162 3164 3166 3165 3166 3165 3162
3164 3162 3159 3156 3152 3149 3146 3143 3139 3136 3134 3131 3129 3127 3126 3126 3126 3126 3127 3130 3130 3129 3130 3131 3132 3133 3135 3137 3140 3141 3142 3145 3147 3149 3151 3152 3152 3151 3153 3156 3159 3160 3162 3162 3161 3159 3159
3162 3159 3156 3153 3150 3147 3143 3140 3137 3133 3130 3127 3126 3125 3124 3124 3123 3124 3127 3128 3127 3127 3128 3129 3130 3131 3132 3134 3137 3138 3140 3142 3144 3146 3150 3149 3148 3148 3150 3152 3155 3155 3156 3159 3159 3157 3158
3159 3156 3153 3150 3147 3144 3140 3137 3134 3130 3127 3124 3123 3122 3122 3121 3121 3122 3124 3125 3125 3125 3126 3127 3128 3129 3130 3131 3134 3136 3138 3138 3139 3141 3145 3146 3147 3145 3148 3147 3148 3150 3153 3154 3154 3152 3150
3156 3153 3151 3148 3144 3140 3136 3133 3130 3127 3124 3121 3121 3120 3120 3119 3120 3121 3121 3122 3122 3123 3124 3127 3126 3127 3128 3129 3131 3132 3133 3135 3135 3137 3138 3140 3143 3143 3143 3143 3145 3147 3147 3148 3150 3149 3145
3153 3151 3148 3144 3141 3137 3133 3130 3127 3124 3121 3119 3117 3117 3117 3117 3119 3117 3118 3119 3120 3120 3121 3122 3124 3124 3126 3127 3129 3130 3130 3131 3133 3134 3135 3136 3137 3136 3137 3138 3140 3142 3143 3144 3145 3146 3144
3150 3148 3145 3141 3138 3134 3130 3126 3123 3120 3118 3116 3114 3113 3113 3113 3114 3114 3114 3115 3116 3118 3118 3119 3120 3121 3122 3124 3126 3125 3126 3128 3130 3131 3132 3133 3133 3133 3132 3134 3133 3134 3135 3137 3138 3139 3139
3147 3144 3141 3138 3134 3130 3126 3122 3119 3116 3114 3113 3111 3110 3109 3108 3109 3110 3111 3112 3113 3114 3115 3116 3117 3118 3119 3120 3121 3122 3122 3124 3126 3127 3129 3129 3129 3130 3130 3130 3130 3130 3129 3130 3132 3132 3132
3143 3141 3138 3134 3131 3127 3123 3119 3115 3112 3110 3109 3107 3106 3105 3104 3104 3105 3107 3107 3108 3110 3111 3112 3114 3114 3116 3117 3117 3118 3119 3121 3122 3123 3124 3126 3125 3126 3126 3126 3124 3123 3125 3125 3124 3126 3125
3139 3136 3133 3130 3127 3123 3119 3115 3112 3108 3106 3105 3103 3102 3101 3100 3100 3101 3101 3102 3103 3104 3107 3108 3110 3110 3111 3112 3113 3114 3116 3117 3117 3118 3119 3119 3120 3120 3120 3121 3119 3116 3117 3119 3119 3119 3119
3135 3131 3128 3125 3121 3118 3114 3111 3108 3105 3102 3100 3099 3098 3097 3096 3096 3097 3097 3097 3098 3099 3101 3101 3103 3104 3105 3106 3107 3108 3109 3111 3111 3113 3114 3115 3115 3115 3115 3115 3113 3109 3110 3112 3113 3113 3115
3130 3127 3123 3119 3116 3112 3109 3105 3103 3100 3099 3097 3095 3094 3093 3093 3092 3092 3092 3092 3093 3093 3095 3096 3097 3098 3100 3100 3102 3103 3104 3104 3105 3107 3108 3109 3110 3111 3110 3111 3105 3104 3105 3105 3104 3106 3107
3125 3121 3117 3114 3110 3107 3104 3100 3097 3096 3094 3093 3092 3091 3089 3088 3089 3088 3088 3088 3088 3088 3089 3089 3090 3091 3093 3095 3097 3097 3098 3098 3098 3100 3101 3103 3104 3105 3104 3102 3098 3099 3101 3101 3099 3100 3099
3119 3115 3112 3108 3105 3102 3100 3096 3093 3091 3090 3089 3088 3087 3086 3085 3084 3084 3083 3083 3083 3083 3084 3084 3084 3084 3087 3089 3091 3090 3090 3091 3091 3091 3092 3094 3096 3098 3097 3095 3090 3093 3095 3093 3095 3092 3093
3113 3109 3106 3103 3100 3097 3095 3093 3090 3088 3086 3085 3084 3083 3082 3080 3080 3079 3078 3078 3078 3078 3078 3079 3079 3079 3080 3082 3084 3085 3084 3085 3085 3085 3087 3087 3087 3086 3088 3088 3085 3086 3087 3088 3089 3091 3088
3106 3103 3100 3098 3095 3093 3091 3089 3087 3086 3084 3082 3081 3079 3078 3076 3075 3074 3072 3072 3072 3072 3072 3074 3076 3075 3076 3078 3079 3078 3077 3077 3077 3078 3079 3081 3082 3082 3083 3083 3081 3080 3083 3083 3080 3080 3082
3100 3098 3096 3094 3091 3088 3087 3085 3084 3082 3080 3078 3077 3075 3073 3072 3072 3069 3068 3067 3067 3067 3068 3069 3070 3071 3071 3072 3073 3072 3072 3072 3071 3072 3072 3075 3075 3076 3077 3076 3074 3073 3074 3073 3073 3074 3076